Hollywood, MD

12:26 AM EST on February 24, 2017 (GMT -0500)
Leonardtown

Weather History for K2W6 - November, 2012

Change the Weather History Date:

Friday, November 30, 2012

  Actual Average (KNHK) Record (KNHK)
Temperature  
Mean Temperature 41 °F -  
Max Temperature 50 °F 51 °F 73 °F (1998)
Min Temperature 32 °F 33 °F 20 °F (1976)
Degree Days  
Heating Degree Days 24    
Moisture  
Dew Point 32 °F    
Average Humidity 80    
Maximum Humidity 100    
Minimum Humidity 50    
Precipitation  
Precipitation 0.00 in - - ()
Sea Level Pressure  
Sea Level Pressure 30.35 in    
Wind  
Wind Speed 1 mph (East)    
Max Wind Speed 5 mph    
Max Gust Speed -    
Visibility 9 miles    
Events      
Averages and records for this station are not official NWS values.
T = Trace of Precipitation, MM = Missing Value Source: NWS Daily Summary

Daily Weather History Graph

Daily Weather History Graph

Search for Another Location

Airport or City:

Trip Planner

Search our weather history database for the weather conditions in past years. The results will help you decide how hot, cold, wet, or windy it might be!

Date:

Astronomy

Nov. 30, 2012 Rise Set
Actual Time 7:03 AM EST 4:46 PM EST
Civil Twilight 6:34 AM EST 5:15 PM EST
Nautical Twilight 6:01 AM EST 5:48 PM EST
Astronomical Twilight 5:29 AM EST 6:19 PM EST
Moon 6:38 PM EST (11/30) 8:34 AM EST (11/30)
Length of Visible Light 10h 40m
Length of Day
9h 42m
Waning Gibbous, 96% of the Moon is Illuminated
Nov 30
Waning Gibbous
Dec 6
Last Quarter
Dec 13
New
Dec 20
First Quarter
Dec 28
Full

Hourly Weather History & Observations

Time (EST) Temp. Windchill Dew Point Humidity Pressure Visibility Wind Dir Wind Speed Gust Speed Precip Events Conditions
12:17 AM 37.4 °F - 32.0 °F 81% 30.37 in 10.0 mi Calm Calm - N/A   Clear
12:38 AM 35.6 °F - 32.0 °F 87% 30.37 in 10.0 mi Calm Calm - N/A   Clear
12:59 AM 33.8 °F - 32.0 °F 93% 30.36 in 10.0 mi Calm Calm - N/A   Clear
1:21 AM 32.0 °F - 32.0 °F 100% 30.36 in 10.0 mi Calm Calm - N/A   Clear
1:42 AM 32.0 °F - 30.2 °F 93% 30.36 in 7.0 mi Calm Calm - N/A   Clear
2:03 AM 32.0 °F - 30.2 °F 93% 30.36 in 10.0 mi Calm Calm - N/A   Clear
2:24 AM 33.8 °F 30.8 °F 30.2 °F 87% 30.37 in 10.0 mi SSW 3.5 mph - N/A   Clear
2:46 AM 33.8 °F 30.8 °F 32.0 °F 93% 30.37 in 10.0 mi SSW 3.5 mph - N/A   Clear
3:07 AM 33.8 °F - 30.2 °F 87% 30.36 in 10.0 mi Calm Calm - N/A   Clear
3:28 AM 33.8 °F - 30.2 °F 87% 30.35 in 10.0 mi Calm Calm - N/A   Clear
3:50 AM 32.0 °F - 30.2 °F 93% 30.35 in 10.0 mi Calm Calm - N/A   Clear
4:11 AM 32.0 °F - 30.2 °F 93% 30.36 in 10.0 mi Calm Calm - N/A   Clear
4:32 AM 33.8 °F 30.8 °F 30.2 °F 87% 30.35 in 10.0 mi South 3.5 mph - N/A   Clear
4:54 AM 32.0 °F - 30.2 °F 93% 30.35 in 10.0 mi Calm Calm - N/A   Clear
5:15 AM 32.0 °F - 30.2 °F 93% 30.35 in 10.0 mi Calm Calm - N/A   Clear
5:36 AM 32.0 °F - 30.2 °F 93% 30.35 in 10.0 mi Calm Calm - N/A   Clear
5:58 AM 32.0 °F - 30.2 °F 93% 30.35 in 10.0 mi Calm Calm - N/A   Clear
6:19 AM 32.0 °F - 30.2 °F 93% 30.36 in 10.0 mi Calm Calm - N/A   Clear
6:40 AM 32.0 °F - 28.4 °F 87% 30.37 in 10.0 mi Calm Calm - N/A   Clear
7:01 AM 32.0 °F - 28.4 °F 87% 30.37 in 10.0 mi Calm Calm - N/A   Clear
7:23 AM 32.0 °F - 28.4 °F 87% 30.37 in 10.0 mi Calm Calm - N/A   Clear
7:44 AM 32.0 °F - 28.4 °F 87% 30.38 in 10.0 mi Calm Calm - N/A   Clear
8:05 AM 32.0 °F - 30.2 °F 93% 30.38 in 10.0 mi Calm Calm - N/A   Clear
8:26 AM 35.6 °F - 32.0 °F 87% 30.39 in 10.0 mi Calm Calm - N/A   Clear
8:48 AM 39.2 °F - 32.0 °F 75% 30.38 in 10.0 mi Calm Calm - N/A   Clear
9:09 AM 41.0 °F 38.0 °F 32.0 °F 70% 30.38 in 10.0 mi SW 4.6 mph - N/A   Clear
9:30 AM 42.8 °F - 32.0 °F 66% 30.38 in 10.0 mi Calm Calm - N/A   Clear
9:51 AM 42.8 °F - 32.0 °F 66% 30.38 in 10.0 mi Calm Calm - N/A   Clear
10:13 AM 44.6 °F 43.1 °F 32.0 °F 61% 30.38 in 10.0 mi ESE 3.5 mph - N/A   Clear
10:34 AM 44.6 °F 42.2 °F 32.0 °F 61% 30.38 in 10.0 mi East 4.6 mph - N/A   Clear
10:55 AM 46.4 °F 45.2 °F 32.0 °F 57% 30.37 in 10.0 mi SE 3.5 mph - N/A   Clear
11:16 AM 48.2 °F - 32.0 °F 54% 30.37 in 10.0 mi East 3.5 mph - N/A   Clear
11:37 AM 48.2 °F - 32.0 °F 54% 30.36 in 10.0 mi Calm Calm - N/A   Clear
11:59 AM 50.0 °F - 32.0 °F 50% 30.35 in 10.0 mi Calm Calm - N/A   Clear
12:20 PM 50.0 °F - 32.0 °F 50% 30.34 in 10.0 mi North 4.6 mph - N/A   Clear
12:41 PM 50.0 °F - 33.8 °F 54% 30.33 in 10.0 mi ENE 3.5 mph - N/A   Clear
1:24 PM 50.0 °F - 33.8 °F 54% 30.32 in 10.0 mi ENE 3.5 mph - N/A   Clear
1:45 PM 48.2 °F - 33.8 °F 58% 30.33 in 10.0 mi NNE 3.5 mph - N/A   Clear
2:06 PM 50.0 °F - 33.8 °F 54% 30.32 in 10.0 mi ENE 4.6 mph - N/A   Clear
2:27 PM 48.2 °F - 33.8 °F 58% 30.32 in 10.0 mi ENE 3.5 mph - N/A   Clear
2:49 PM 46.4 °F - 33.8 °F 62% 30.32 in 10.0 mi Calm Calm - N/A   Clear
3:10 PM 46.4 °F 45.2 °F 33.8 °F 62% 30.32 in 10.0 mi East 3.5 mph - N/A   Clear
3:31 PM 46.4 °F 45.2 °F 33.8 °F 62% 30.32 in 10.0 mi East 3.5 mph - N/A   Clear
3:52 PM 46.4 °F - 33.8 °F 62% 30.33 in 10.0 mi Calm Calm - N/A   Scattered Clouds
4:14 PM 44.6 °F - 33.8 °F 66% 30.34 in 10.0 mi Calm Calm - N/A   Mostly Cloudy
4:35 PM 44.6 °F - 33.8 °F 66% 30.34 in 10.0 mi Calm Calm - N/A   Scattered Clouds
4:56 PM 42.8 °F - 33.8 °F 70% 30.34 in 10.0 mi Calm Calm - N/A   Clear
5:17 PM 41.0 °F - 33.8 °F 76% 30.34 in 10.0 mi Calm Calm - N/A   Scattered Clouds
5:38 PM 39.2 °F - 33.8 °F 81% 30.34 in 10.0 mi Calm Calm - N/A   Clear
6:00 PM 37.4 °F - 33.8 °F 87% 30.34 in 10.0 mi Calm Calm - N/A   Clear
6:21 PM 37.4 °F - 33.8 °F 87% 30.34 in 10.0 mi Calm Calm - N/A   Clear
6:42 PM 37.4 °F - 33.8 °F 87% 30.34 in 10.0 mi Calm Calm - N/A   Clear
7:03 PM 37.4 °F - 33.8 °F 87% 30.35 in 7.0 mi Calm Calm - N/A   Clear
7:25 PM 35.6 °F - 33.8 °F 93% 30.35 in 7.0 mi Calm Calm - N/A   Clear
7:46 PM 35.6 °F - 33.8 °F 93% 30.36 in 7.0 mi Calm Calm - N/A   Clear
8:07 PM 35.6 °F - 33.8 °F 93% 30.36 in 4.0 mi Calm Calm - N/A   Clear
8:28 PM 33.8 °F - 32.0 °F 93% 30.35 in 4.0 mi Calm Calm - N/A   Clear
8:50 PM 35.6 °F - 33.8 °F 93% 30.36 in 4.0 mi Calm Calm - N/A   Clear
9:11 PM 33.8 °F - 33.8 °F 100% 30.36 in 3.0 mi Calm Calm - N/A   Clear
9:32 PM 33.8 °F - 32.0 °F 93% 30.36 in 4.0 mi Calm Calm - N/A   Clear
9:53 PM 33.8 °F - 32.0 °F 93% 30.36 in 4.0 mi Calm Calm - N/A   Clear
10:15 PM 33.8 °F - 32.0 °F 93% 30.37 in 2.0 mi Calm Calm - N/A   Clear
10:36 PM 33.8 °F - 32.0 °F 93% 30.36 in 2.5 mi Calm Calm - N/A   Clear
10:57 PM 33.8 °F - 32.0 °F 93% 30.36 in 2.0 mi Calm Calm - N/A   Clear
11:19 PM 33.8 °F - 32.0 °F 93% 30.36 in 4.0 mi Calm Calm - N/A   Clear
11:40 PM 33.8 °F - 32.0 °F 93% 30.36 in 4.0 mi Calm Calm - N/A   Clear